Oaxaca, Mexico

4:30 PM CDT on July 25, 2017 (GMT -0500)
Xoxocotlan International

Weather History for MMOX - December, 2012

Change the Weather History Date:

Thursday, December 6, 2012

  Actual Average Record
Temperature  
Mean Temperature 62 °F -  
Max Temperature 82 °F 78 °F 89 °F (2016)
Min Temperature 41 °F 47 °F 41 °F (2012)
Degree Days  
Heating Degree Days 4    
Growing Degree Days 12 (Base 50)    
Moisture  
Dew Point 38 °F    
Average Humidity 44    
Maximum Humidity 87    
Minimum Humidity 12    
Precipitation  
Precipitation 0.00 in - - ()
Sea Level Pressure  
Sea Level Pressure 30.07 in    
Wind  
Wind Speed 3 mph ()    
Max Wind Speed 8 mph    
Max Gust Speed -    
Visibility 8.9 miles    
Events      
Averages and records for this station are not official NWS values.
T = Trace of Precipitation, MM = Missing Value Source: Averaged Metar Reports

Daily Weather History Graph

Daily Weather History Graph

Search for Another Location

Airport or City:

Trip Planner

Search our weather history database for the weather conditions in past years. The results will help you decide how hot, cold, wet, or windy it might be!

Date:

Astronomy

Dec. 06, 2012 Rise Set
Actual Time 6:43 AM CST 5:52 PM CST
Civil Twilight 6:20 AM CST 6:16 PM CST
Nautical Twilight 5:53 AM CST 6:43 PM CST
Astronomical Twilight 5:26 AM CST 7:09 PM CST
Moon No Moon Rise 12:26 PM CST (12/6)
Length of Visible Light 11h 56m
Length of Day
11h 09m
Waning Gibbous, 49% of the Moon is Illuminated
Dec 6
Waning Gibbous
Dec 13
New
Dec 19
First Quarter
Dec 28
Full
Jan 4
Last Quarter

Hourly Weather History & Observations

Time (CST) Temp. Windchill Dew Point Humidity Pressure Visibility Wind Dir Wind Speed Gust Speed Precip Events Conditions
2:45 AM 51 °F - 41 °F 58% 30.04 in 6 mi ENE 2.2 mph - -  
5:45 AM 45 °F - 38 °F 68% 30.10 in 6 mi NE 2.2 mph - -  
6:14 AM 41.0 °F 37.1 °F 37.4 °F 87% 30.07 in 7.0 mi North 5.8 mph - N/A   Clear
6:53 AM 41.0 °F 39.0 °F 37.4 °F 87% 30.25 in 7.0 mi North 3.5 mph - N/A   Partly Cloudy
7:44 AM 46.4 °F 43.5 °F 39.2 °F 76% 30.26 in 7.0 mi NNE 5.8 mph - N/A   Partly Cloudy
8:40 AM 53 °F - 39 °F 47% 30.19 in 12 mi North 4.5 mph - -   Haze
8:47 AM 51.8 °F - 41.0 °F 67% 30.09 in 7.0 mi North 4.6 mph - N/A   Clear
9:40 AM 59.0 °F - 42.8 °F 55% 30.26 in 7.0 mi North 3.5 mph - N/A   Partly Cloudy
10:46 AM 66.2 °F - 42.8 °F 43% 30.24 in 7.0 mi Calm Calm - N/A   Clear
11:43 AM 69.8 °F - 39.2 °F 33% 29.96 in 7.0 mi North - - N/A   Clear
11:45 AM 74 °F - 42 °F 21% 30.10 in 12 mi WSW 2.2 mph - -   Partly Cloudy
12:47 PM 71.6 °F - 35.6 °F 27% 30.16 in 8.0 mi South 6.9 mph - N/A   Clear
1:45 PM 73.4 °F - 35.6 °F 25% 30.12 in 12.0 mi SE 8.1 mph - N/A   Clear
2:45 PM 75.2 °F - 33.8 °F 22% 29.83 in 12.0 mi SE 5.8 mph - N/A   Clear
2:50 PM 82 °F - 38 °F 12% 29.89 in 12 mi SW 2.2 mph - -   Clear
3:48 PM 77.0 °F - 33.8 °F 21% 30.07 in 12.0 mi SSE 5.8 mph - N/A   Clear
4:45 PM 77.0 °F - 33.8 °F 21% 30.06 in 12.0 mi South 5.8 mph - N/A   Clear
5:42 PM 71.6 °F - 33.8 °F 25% 30.02 in 10.0 mi NW 5.8 mph - N/A   Clear
5:50 PM 73 °F - 33 °F 13% 29.81 in 12 mi SW 2.2 mph - -   Clear
6:45 PM 62.6 °F - 33.8 °F 34% 30.10 in 8.0 mi Calm Calm - N/A   Clear
7:45 PM 55.4 °F - 37.4 °F 51% 30.12 in 8.0 mi Calm Calm - N/A   Clear
8:45 PM 60.8 °F - 37.4 °F 42% 29.96 in 8.0 mi Calm Calm - N/A   Clear
9:45 PM 51.8 °F - 41.0 °F 67% 30.17 in 8.0 mi Calm Calm - N/A   Clear
11:50 PM 54 °F - 39 °F 45% 29.91 in 6 mi ENE 2.2 mph - -   Clear